Location: Waco, TX
(31.5480°N, 97.1670°W)
Time: 22:53:11
(UTC-06:00)

ISS - Pass Details

Date: 12 November 2018
Orbit: 402 x 408 km, 51.6° (Epoch: 17 November)

Event Time Altitude Azimuth Distance (km) Brightness Sun altitude
Rises 06:34:35 0° 321° (NW) 2,320 - -4.7°
Exits shadow 06:35:00 - 322° (NW) 2,146 -0.7 -4.7°
Reaches altitude 10° 06:36:43 10° 328° (NNW) 1,459 -1.5 -4.3°
Maximum altitude 06:39:52 43° 42° (NE) 575 -2.8 -3.7°
Drops below altitude 10° 06:43:00 10° 116° (ESE) 1,456 1.0 -3.0°
Sets 06:45:08 0° 123° (ESE) 2,314 2.0 -2.6°
